Regional Weather Roundup
Issued by NWS

Home | Current Version | Previous Version | Graphics & Text | Print | Product List | Glossary On
Versions: 1 2 3 4 5 6 7 8 9 10 11 12 13 14 15 16 17 18 19 20 21 22 23 24 25 26 27 28 29 30 31 32 33 34 35 36 37 38 39 40 41 42 43 44 45 46 47 48 49 50
000
ASUS43 KTOP 301808
RWRKS

WEATHER ROUNDUP FOR KANSAS
NATIONAL WEATHER SERVICE GOODLAND KS
100 PM CDT THU OCT 30 2014

NOTE:  "FAIR" INDICATES FEW OR NO CLOUDS BELOW 12,000 FEET WITH NO
SIGNIFICANT WEATHER AND/OR OBSTRUCTIONS TO VISIBILITY.

KSZ001>006-013>018-027>032-041>047-301900-
NORTHWEST KANSAS

CITY           SKY/WX    TMP DP  RH WIND       PRES   REMARKS
GOODLAND       SUNNY     62  30  29 N14       30.33F
6HR MIN TEMP:  37; 6HR MAX TEMP:  63;

HAYS           SUNNY     66  37  34 N17G23    30.23S
HILL CITY      LGT RAIN  66  33  29 NW17G23   30.25F
6HR MIN TEMP:  46; 6HR MAX TEMP:  66; 6HR PCP: TRACE;

RUSSELL        SUNNY     67  37  33 NW17G28   30.19F
6HR MIN TEMP:  46; 6HR MAX TEMP:  67;

$$

KSZ061>065-074>080-084>089-301900-
SOUTHWEST KANSAS

CITY           SKY/WX    TMP DP  RH WIND       PRES   REMARKS
DODGE CITY     SUNNY     67  32  27 N18G25    30.26S
6HR MIN TEMP:  44; 6HR MAX TEMP:  68;

ELKHART          N/A     66  31  27 NE10        N/A
GARDEN CITY    SUNNY     66  29  24 N22       30.29R
6HR MIN TEMP:  41; 6HR MAX TEMP:  66;

GREAT BEND     SUNNY     66  37  34 N16       30.21S
LIBERAL        SUNNY     70  36  28 N17G24    30.30S
PRATT          SUNNY     68  34  28 N16       30.22S
$$

KSZ066>073-081>083-090>101-301900-
SOUTHEAST KANSAS

CITY           SKY/WX    TMP DP  RH WIND       PRES   REMARKS
CHANUTE        SUNNY     70  41  34 NW15G24   30.06S
6HR MIN TEMP:  51; 6HR MAX TEMP:  70;

COFFEYVILLE    SUNNY     70  42  36 N15G22    30.06F
6HR MIN TEMP:  45; 6HR MAX TEMP:  70;

HUTCHINSON     SUNNY     71  37  28 N15G23    30.17S
6HR MIN TEMP:  44; 6HR MAX TEMP:  71;

MEDICINE LODGE   N/A     70  35  27 N15G24    30.19R
NEWTON         SUNNY     66  37  34 N23       30.16F
PARSONS        SUNNY     71  41  33 N13G25    30.07F
6HR MIN TEMP:  48; 6HR MAX TEMP:  71; 6HR PCP: TRACE;

WICHITA INTL     N/A     70  36  28 N18G28    30.15S
6HR MIN TEMP:  45; 6HR MAX TEMP:  71;

WICHITA JABRA  SUNNY     70  37  29 NW20G26   30.14S
6HR MIN TEMP:  49; 6HR MAX TEMP:  70;

WICHITA MCCONL SUNNY     69  35  28 N18G24    30.14F
WINFIELD       SUNNY     72  38  29 N18       30.14S
6HR MIN TEMP:  50; 6HR MAX TEMP:  72;

$$

KSZ007>012-019>026-033>040-048>060-102>105-301900-
NORTHEAST KANSAS

CITY           SKY/WX    TMP DP  RH WIND       PRES   REMARKS
CONCORDIA      SUNNY     67  36  31 NW17G29   30.13F
6HR MIN TEMP:  43; 6HR MAX TEMP:  68;

EMPORIA        SUNNY     69  36  29 N20G30    30.08F
6HR MIN TEMP:  47; 6HR MAX TEMP:  69;

LAWRENCE       LGT RAIN  68  39  34 N23G31    30.03F
6HR MIN TEMP:  46; 6HR MAX TEMP:  68; 6HR PCP: TRACE;

MANHATTAN      SUNNY     69  37  30 N16G25    30.10F
6HR MIN TEMP:  44; 6HR MAX TEMP:  69;

MARYSVILLE     SUNNY     64  39  39 N21       30.09S
OLATHE IND     SUNNY     66  41  40 NW21G31   30.03F
6HR MIN TEMP:  46; 6HR MAX TEMP:  66;

OLATHE EXE     SUNNY     66  40  38 N15       30.01F
6HR MIN TEMP:  47; 6HR MAX TEMP:  66; 6HR PCP:  0.01;

SALINA         SUNNY     71  38  29 N24G30    30.15F
6HR MIN TEMP:  48; 6HR MAX TEMP:  71;

TOPEKA BILLARD SUNNY     68  40  35 NW23G32   30.06S
6HR MIN TEMP:  49; 6HR MAX TEMP:  69;

TOPEKA FORBES  SUNNY     69  40  34 NW25      30.05S
6HR MIN TEMP:  45; 6HR MAX TEMP:  69; 6HR PCP: TRACE;

$$



USA.gov is the U.S. government's official web portal to all federal, state and local government web resources and services.